EN

Hourly Weather Lagi

Today, 25 July, Sunday

Time Temperature Precipitation Wind Pressure Humidity
00:00 +15°C° 0 mm 2 mps 743 mmHg 67%
01:00 +14°C° 0 mm 2 mps 743 mmHg 68%
02:00 +14°C° 0 mm 2 mps 743 mmHg 70%
03:00 +14°C° 0 mm 1 mps 743 mmHg 71%
04:00 +14°C° 0 mm 1 mps 743 mmHg 72%
05:00 +14°C° 0 mm 1 mps 744 mmHg 73%
06:00 +18°C° 0 mm 1 mps 744 mmHg 67%
07:00 +20°C° 0 mm 1 mps 744 mmHg 62%
08:00 +22°C° 0 mm 1 mps 744 mmHg 56%
09:00 +23°C° 0 mm 1 mps 744 mmHg 53%
10:00 +25°C° 0 mm 1 mps 744 mmHg 49%
11:00 +26°C° 0 mm 2 mps 745 mmHg 45%
12:00 +27°C° 0 mm 1 mps 745 mmHg 43%
13:00 +27°C° 0 mm 1 mps 744 mmHg 40%
14:00 +28°C° 0 mm 1 mps 744 mmHg 37%
15:00 +28°C° 0 mm 1 mps 744 mmHg 38%
16:00 +28°C° 0 mm 1 mps 744 mmHg 39%
17:00 +28°C° 0 mm 1 mps 744 mmHg 40%
18:00 +26°C° 0 mm 1 mps 744 mmHg 46%
19:00 +24°C° 0 mm 1 mps 744 mmHg 52%
20:00 +22°C° 0 mm 1 mps 744 mmHg 58%
21:00 +21°C° 0 mm 1 mps 745 mmHg 60%
22:00 +21°C° 0 mm 1 mps 745 mmHg 62%
23:00 +20°C° 0 mm 1 mps 745 mmHg 64%

Tomorrow, 26 July, Monday

Time Temperature Precipitation Wind Pressure Humidity
00:00 +19°C° 0 mm 1 mps 745 mmHg 66%
01:00 +19°C° 0 mm 1 mps 745 mmHg 69%
02:00 +18°C° 0 mm 1 mps 745 mmHg 72%
03:00 +18°C° 0 mm 1 mps 745 mmHg 74%
04:00 +18°C° 0 mm 1 mps 746 mmHg 76%
05:00 +18°C° 0 mm 1 mps 746 mmHg 78%
06:00 +19°C° 0 mm 2 mps 746 mmHg 72%
07:00 +21°C° 0 mm 2 mps 746 mmHg 66%
08:00 +24°C° 0 mm 2 mps 746 mmHg 60%
09:00 +25°C° 0 mm 2 mps 746 mmHg 55%
10:00 +27°C° 0 mm 2 mps 746 mmHg 50%
11:00 +28°C° 0 mm 2 mps 747 mmHg 45%
12:00 +28°C° 0 mm 2 mps 746 mmHg 44%
13:00 +29°C° 0 mm 2 mps 746 mmHg 43%
14:00 +29°C° 0 mm 2 mps 746 mmHg 42%
15:00 +28°C° 0 mm 2 mps 746 mmHg 46%
16:00 +27°C° 0 mm 2 mps 746 mmHg 51%
17:00 +26°C° 0 mm 2 mps 746 mmHg 55%
18:00 +25°C° 0 mm 2 mps 746 mmHg 58%
19:00 +24°C° 0 mm 2 mps 746 mmHg 62%
20:00 +23°C° 0 mm 2 mps 746 mmHg 65%
21:00 +21°C° 0 mm 2 mps 746 mmHg 65%
22:00 +21°C° 0 mm 2 mps 746 mmHg 65%
23:00 +21°C° 0 mm 2 mps 746 mmHg 64%

Day after tomorrow, 27 July, Tuesday

Time Temperature Precipitation Wind Pressure Humidity
00:00 +20°C° 0 mm 2 mps 746 mmHg 67%
01:00 +19°C° 0 mm 2 mps 746 mmHg 70%
02:00 +18°C° 0 mm 2 mps 746 mmHg 74%
03:00 +18°C° 0 mm 2 mps 746 mmHg 76%
04:00 +18°C° 0 mm 2 mps 746 mmHg 79%
05:00 +17°C° 0 mm 2 mps 746 mmHg 82%
06:00 +19°C° 0 mm 2 mps 746 mmHg 75%
07:00 +21°C° 0 mm 3 mps 746 mmHg 68%
08:00 +25°C° 0 mm 3 mps 746 mmHg 62%
09:00 +26°C° 0 mm 3 mps 745 mmHg 57%
10:00 +27°C° 0 mm 4 mps 745 mmHg 52%
11:00 +28°C° 0 mm 4 mps 745 mmHg 46%
12:00 +28°C° 0 mm 4 mps 745 mmHg 47%
13:00 +28°C° 0 mm 4 mps 744 mmHg 48%
14:00 +28°C° 0 mm 4 mps 744 mmHg 49%
15:00 +27°C° 0.1 mm 3 mps 744 mmHg 53%
16:00 +26°C° 0.1 mm 3 mps 743 mmHg 57%
17:00 +25°C° 0.1 mm 3 mps 743 mmHg 61%
18:00 +24°C° 0.1 mm 3 mps 743 mmHg 64%
19:00 +24°C° 0.1 mm 3 mps 742 mmHg 68%
20:00 +22°C° 0.1 mm 3 mps 742 mmHg 71%
21:00 +21°C° 0.1 mm 4 mps 742 mmHg 73%
22:00 +21°C° 0.1 mm 4 mps 741 mmHg 76%
23:00 +20°C° 0.1 mm 5 mps 741 mmHg 78%

28 July, Wednesday

Time Temperature Precipitation Wind Pressure Humidity
00:00 +20°C° 0.8 mm 5 mps 741 mmHg 82%
01:00 +19°C° 0.8 mm 4 mps 740 mmHg 87%
02:00 +19°C° 0.8 mm 4 mps 740 mmHg 91%
03:00 +19°C° 0.3 mm 4 mps 740 mmHg 93%
04:00 +18°C° 0.3 mm 4 mps 739 mmHg 95%
05:00 +18°C° 0.3 mm 4 mps 739 mmHg 96%
06:00 +19°C° 0.1 mm 4 mps 739 mmHg 93%
07:00 +20°C° 0.1 mm 4 mps 739 mmHg 91%
08:00 +21°C° 0.1 mm 4 mps 739 mmHg 88%
09:00 +22°C° 0.3 mm 4 mps 739 mmHg 84%
10:00 +22°C° 0.3 mm 5 mps 739 mmHg 81%
11:00 +23°C° 0.3 mm 5 mps 739 mmHg 78%
12:00 +25°C° 0.3 mm 5 mps 739 mmHg 70%
13:00 +27°C° 0.3 mm 5 mps 738 mmHg 61%
14:00 +28°C° 0.3 mm 6 mps 738 mmHg 53%
15:00 +28°C° 0 mm 5 mps 738 mmHg 52%
16:00 +28°C° 0 mm 5 mps 738 mmHg 51%
17:00 +28°C° 0 mm 5 mps 738 mmHg 50%
18:00 +27°C° 0 mm 4 mps 738 mmHg 53%
19:00 +25°C° 0 mm 4 mps 738 mmHg 57%
20:00 +23°C° 0 mm 4 mps 738 mmHg 61%
21:00 +22°C° 0 mm 4 mps 738 mmHg 68%
22:00 +20°C° 0 mm 3 mps 738 mmHg 75%
23:00 +19°C° 0 mm 3 mps 738 mmHg 82%

29 July, Thursday

Time Temperature Precipitation Wind Pressure Humidity
00:00 +18°C° 0 mm 3 mps 738 mmHg 83%
01:00 +18°C° 0 mm 3 mps 738 mmHg 85%
02:00 +18°C° 0 mm 3 mps 739 mmHg 86%
03:00 +18°C° 0 mm 3 mps 738 mmHg 87%
04:00 +17°C° 0 mm 3 mps 738 mmHg 88%
05:00 +17°C° 0 mm 3 mps 738 mmHg 89%
06:00 +19°C° 0 mm 3 mps 739 mmHg 81%
07:00 +21°C° 0 mm 4 mps 739 mmHg 73%
08:00 +22°C° 0 mm 5 mps 739 mmHg 66%
09:00 +25°C° 0 mm 5 mps 739 mmHg 59%
10:00 +26°C° 0 mm 5 mps 739 mmHg 53%
11:00 +28°C° 0 mm 5 mps 739 mmHg 46%
12:00 +28°C° 0 mm 5 mps 739 mmHg 45%
13:00 +29°C° 0 mm 5 mps 739 mmHg 43%
14:00 +30°C° 0 mm 5 mps 739 mmHg 42%
15:00 +29°C° 0 mm 5 mps 739 mmHg 46%
16:00 +28°C° 0 mm 4 mps 739 mmHg 50%
17:00 +27°C° 0 mm 4 mps 739 mmHg 54%
18:00 +26°C° 0 mm 3 mps 739 mmHg 59%
19:00 +24°C° 0 mm 3 mps 739 mmHg 65%
20:00 +23°C° 0 mm 2 mps 739 mmHg 71%
21:00 +21°C° 0 mm 2 mps 739 mmHg 73%
22:00 +20°C° 0 mm 2 mps 739 mmHg 75%
23:00 +20°C° 0 mm 1 mps 739 mmHg 78%

30 July, Friday

Time Temperature Precipitation Wind Pressure Humidity
00:00 +20°C° 0 mm 1 mps 739 mmHg 80%
01:00 +19°C° 0 mm 1 mps 739 mmHg 83%
02:00 +19°C° 0 mm 1 mps 740 mmHg 85%
03:00 +19°C° 0 mm 1 mps 740 mmHg 86%
04:00 +19°C° 0 mm 1 mps 740 mmHg 87%
05:00 +19°C° 0 mm 1 mps 740 mmHg 88%
06:00 +21°C° 0 mm 1 mps 740 mmHg 80%
07:00 +23°C° 0 mm 1 mps 740 mmHg 72%
08:00 +25°C° 0 mm 1 mps 740 mmHg 64%
09:00 +26°C° 0 mm 1 mps 740 mmHg 59%
10:00 +27°C° 0 mm 2 mps 740 mmHg 53%
11:00 +28°C° 0 mm 2 mps 740 mmHg 47%
12:00 +29°C° 0 mm 3 mps 740 mmHg 45%
13:00 +29°C° 0 mm 3 mps 740 mmHg 42%
14:00 +30°C° 0 mm 3 mps 740 mmHg 40%
15:00 +30°C° 0 mm 3 mps 739 mmHg 42%
16:00 +30°C° 0 mm 3 mps 739 mmHg 44%
17:00 +29°C° 0 mm 2 mps 739 mmHg 46%
18:00 +28°C° 0 mm 2 mps 739 mmHg 52%
19:00 +26°C° 0 mm 2 mps 739 mmHg 59%
20:00 +24°C° 0 mm 2 mps 739 mmHg 65%
21:00 +23°C° 0.1 mm 2 mps 739 mmHg 73%
22:00 +21°C° 0.1 mm 2 mps 738 mmHg 80%
23:00 +19°C° 0.1 mm 2 mps 738 mmHg 88%
Show more